Location: Caltech
(34.1382°N, 118.1253°W)
Time: 17:36:45
(UTC-07:00)

Iridium 95 - Visible Passes

Search period start: 24 October 2014 00:00
Search period end: 02 November 2014 23:00
Orbit: 776 x 779 km, 86.4° (Epoch: 24 October)

Date Brightness Start Highest point End Pass type
(mag) Time Alt. Az. Time Alt. Az. Time Alt. Az.
31 Oct 7.5 19:11:34 10° SE 19:11:56 12° SE 19:11:56 12° SE visible
31 Oct 7.8 20:51:16 10° SSW 20:52:32 17° SW 20:52:32 17° SW visible
01 Nov 6.0 20:17:10 10° S 20:21:21 54° SW 20:21:21 54° SW visible
02 Nov 5.4 18:43:42 10° S 18:48:49 64° E 18:53:58 10° N visible
02 Nov 8.5 20:28:17 10° W 20:29:57 11° WNW 20:31:38 10° WNW visible
